Temperature
29 31 31 31 31 30 30 30 30 30 30 30 30 29 29 28 27 27 26 25 24 24 23 22 21 20 20 19 19 19 19 19 19 18 18 18 18 18 18 18 18 18 18 18
30 30 31 31 30 30 30 30 30 30 30 30 30 29 30 29 28 27 26 25 25 24 23 22 21 20 20 19 19 19 19 19 19 19 19 18 18 18 18 18 18 18 18 18
30 31 31 30 30 30 30 30 30 30 30 30 30 30 30 29 28 27 26 26 25 24 24 22 21 21 20 20 19 19 19 19 19 19 18 18 18 18 18 17 18 18 18 18
30 31 30 30 30 30 30 30 30 29 29 30 30 30 30 30 29 28 27 26 25 25 24 23 22 21 21 20 19 19 19 19 19 19 18 18 18 18 17 17 17 17 17 17
30 31 30 30 30 30 30 30 30 30 30 30 30 30 31 30 29 29 28 27 26 25 24 23 22 21 21 20 20 19 19 19 19 18 18 18 18 18 18 17 17 17 17 17
31 31 31 31 31 30 30 30 30 30 31 29 30 30 30 30 29 29 28 27 26 25 24 23 22 21 21 20 20 19 19 19 19 19 18 18 18 18 17 17 17 17 17 17
30 31 31 31 30 30 30 30 30 29 30 30 30 30 30 30 30 29 28 27 25 25 24 23 22 21 21 20 20 20 19 19 19 19 18 18 18 18 17 17 17 17 17 17
30 30 31 31 31 30 31 31 29 29 29 30 30 30 30 30 29 28 27 27 25 24 24 23 22 22 21 21 20 19 19 19 19 19 19 18 18 18 18 17 17 17 17 17
31 30 31 31 31 31 31 31 31 30 30 30 30 30 30 29 29 28 27 26 26 25 24 23 23 22 21 21 20 20 19 19 19 19 19 18 18 18 17 17 17 17 17 17
31 30 31 31 30 30 31 31 30 30 29 29 30 30 30 28 28 28 28 27 26 25 24 23 23 22 22 21 20 20 19 19 19 19 19 18 18 18 18 17 17 17 17 17
31 30 30 30 30 30 30 30 30 30 30 29 29 30 30 28 28 28 28 26 25 25 24 23 23 22 21 21 20 20 19 19 19 18 18 18 18 18 17 17 17 17 17 16
30 31 30 30 31 31 31 31 30 29 29 29 29 29 29 29 29 28 27 26 25 24 24 23 22 22 21 21 20 20 19 19 19 18 18 18 18 17 17 17 17 17 16 16
29 30 29 29 30 30 30 30 31 31 30 30 29 29 29 28 28 27 26 25 24 23 23 22 22 21 21 20 20 20 19 19 18 18 18 18 17 17 17 17 17 16 16 16
28 29 29 29 30 30 30 29 30 30 30 30 30 29 29 28 28 27 26 24 24 23 22 22 21 21 20 20 19 19 19 19 18 18 18 18 17 17 17 17 16 16 16 16
29 29 29 29 29 29 29 29 29 29 30 29 29 29 29 28 27 26 25 24 23 23 22 21 21 20 20 19 19 19 18 18 18 18 17 17 17 17 17 16 16 16 16 16
28 28 28 28 29 29 29 29 29 29 29 29 29 29 28 27 26 25 24 23 23 22 21 21 20 20 19 19 19 19 18 18 18 17 17 17 17 16 16 16 16 16 15 15
27 27 27 28 28 28 28 29 29 29 29 29 29 28 27 26 25 24 23 23 22 21 21 20 20 19 19 19 18 18 18 18 18 17 17 17 16 16 16 16 16 15 15 15
26 26 27 27 27 26 28 29 29 28 28 28 27 27 26 25 24 24 23 22 21 21 20 20 19 19 19 18 18 18 18 17 17 17 16 16 16 16 16 16 15 15 15 15
25 25 26 27 27 27 28 28 28 28 27 27 27 26 25 25 24 24 22 21 21 20 19 19 19 19 18 18 18 17 17 17 17 16 16 16 16 15 15 15 15 15 15 14
25 25 26 26 26 26 27 27 27 27 26 26 26 25 24 24 25 24 21 20 20 19 19 19 18 18 18 17 17 17 17 16 16 16 16 15 15 15 15 15 15 15 14 14
25 24 25 26 26 27 27 26 26 26 25 25 24 24 23 24 24 22 20 19 19 18 18 18 17 17 17 17 17 16 16 16 16 15 15 15 15 15 15 15 15 14 14 14
25 25 25 25 25 25 25 26 25 24 23 23 23 22 22 22 21 20 19 18 18 17 17 17 17 16 16 16 16 16 16 15 15 15 15 15 15 15 15 14 14 14 14 14
24 24 25 25 25 23 23 23 22 21 21 21 22 21 21 21 20 19 18 18 17 17 16 16 16 16 16 16 16 16 15 15 15 15 15 14 14 14 14 14 14 14 14 14
23 22 23 23 23 22 22 21 20 20 20 20 20 20 20 20 19 18 18 17 16 16 16 16 16 16 15 15 15 15 15 15 14 14 14 14 14 14 14 14 14 13 13 13
22 22 22 22 22 22 21 20 20 19 20 20 19 19 19 19 18 18 17 17 16 16 15 15 15 15 15 15 15 15 15 14 14 14 14 14 14 13 13 13 13 13 13 13
21 21 22 22 21 21 21 19 19 19 19 18 18 18 18 18 18 17 17 16 16 15 15 15 15 15 15 15 14 14 14 14 14 14 14 14 14 13 13 13 13 13 13 12
Wind_Speed
5 6 3 1 2 2 2 2 1 1 0 2 3 2 2 4 6 7 6 6 6 6 5 5 5 5 4 3 3 2 2 2 1 0 0 0 1 1 1 1 2 2 3 3
6 5 2 1 2 3 3 3 2 1 1 3 3 4 3 4 6 7 7 7 7 7 6 6 5 5 5 4 3 3 3 2 1 0 0 1 1 1 1 2 2 2 2 3
6 1 2 3 4 5 4 4 3 2 3 5 5 4 4 4 5 6 7 7 7 7 7 7 6 6 5 5 4 3 2 2 1 0 1 0 0 0 1 1 1 2 2 2
5 3 4 5 4 5 4 2 3 4 5 3 4 4 2 4 5 5 6 7 7 7 7 7 7 7 6 5 5 4 3 2 1 1 1 1 1 1 2 1 2 2 2 2
5 4 6 6 4 5 2 1 3 5 6 6 5 5 1 4 3 3 4 5 6 6 6 7 7 7 6 6 5 5 4 3 2 2 1 2 1 1 1 2 2 2 2 2
6 4 5 4 2 3 3 4 5 6 7 5 3 5 1 1 1 1 2 3 4 4 5 6 6 6 6 6 6 6 5 4 3 3 2 1 1 1 2 2 2 1 1 2
8 7 5 5 5 6 6 6 5 5 4 2 0 4 1 3 1 1 2 2 3 4 5 5 6 7 7 7 7 6 6 5 4 4 3 3 2 1 1 2 1 2 2 1
8 7 7 6 6 5 6 7 6 5 5 3 3 3 2 3 2 1 1 2 3 3 4 4 5 6 7 7 7 6 6 5 4 4 4 3 3 2 1 1 2 2 2 2
6 5 5 4 5 6 5 6 6 8 8 7 3 1 1 2 2 2 2 2 3 3 4 4 4 5 6 7 7 7 6 6 5 5 4 3 3 2 2 1 2 2 2 2
6 5 5 4 5 4 5 4 5 7 6 7 5 4 1 2 1 1 1 1 2 3 4 4 4 4 5 6 7 7 6 6 5 5 4 3 3 3 2 2 1 2 2 2
8 7 6 7 7 6 6 6 6 6 7 8 7 3 2 1 2 1 1 1 2 3 4 4 4 4 5 5 6 7 6 6 5 4 3 3 3 2 2 2 2 1 2 2
7 7 7 7 4 4 7 7 8 7 6 7 8 3 3 1 1 1 0 1 1 2 3 3 4 4 4 5 5 6 6 6 5 4 4 4 3 3 2 2 2 2 2 2
5 7 8 8 8 7 7 7 8 9 8 8 8 3 4 2 1 1 1 1 2 3 3 3 3 4 3 3 4 4 5 5 5 5 5 4 3 3 2 2 2 2 2 2
5 9 10 10 7 4 6 7 8 9 8 8 7 6 2 1 1 0 1 1 2 3 3 3 3 3 3 2 3 3 3 4 4 4 4 4 3 3 3 2 2 2 2 2
6 9 10 9 8 8 10 10 10 11 10 10 8 7 4 3 2 1 0 1 2 2 3 3 2 2 2 1 1 1 2 2 3 4 4 3 3 3 2 2 2 2 3 2
4 7 8 9 9 10 11 11 10 11 11 11 10 7 2 1 1 1 1 1 1 2 1 1 2 2 2 2 1 2 2 2 2 2 2 2 2 2 2 2 2 2 3 3
5 7 9 10 8 10 12 10 10 9 8 9 9 4 0 1 2 2 1 1 1 1 0 1 2 2 2 2 2 2 3 3 2 2 1 1 1 2 2 2 2 2 3 3
6 7 7 9 8 12 6 2 5 6 4 4 4 2 2 2 2 2 1 1 0 0 1 0 0 1 2 2 3 2 2 2 2 1 0 1 1 1 2 2 2 3 3 3
8 8 7 9 12 11 7 5 5 7 6 3 3 2 1 2 3 2 2 1 0 0 0 0 0 1 2 2 3 3 2 2 1 0 1 1 2 2 2 3 3 3 4 4
7 8 9 9 12 11 4 2 2 5 7 2 2 2 1 2 4 0 2 1 1 1 1 1 1 2 2 2 2 2 1 1 1 1 1 2 2 2 3 3 4 4 4 5
8 8 11 12 12 8 2 2 5 8 2 2 1 1 2 2 3 2 2 1 1 1 1 2 2 1 1 1 1 1 1 0 1 1 1 1 2 2 3 3 4 4 4 4
8 9 10 10 12 7 2 3 3 2 3 2 1 1 1 1 1 1 1 1 1 1 1 1 1 1 1 1 1 1 1 1 1 1 2 3 3 3 2 3 3 4 4 4
6 4 4 5 3 2 2 2 2 3 3 3 3 3 2 1 0 0 1 1 1 0 0 0 1 1 0 0 0 1 1 1 2 2 3 3 3 3 3 3 4 4 4 4
4 2 4 4 3 1 1 1 3 4 4 4 4 4 2 2 1 0 1 1 0 0 0 0 0 0 0 1 1 1 2 2 2 2 3 3 3 3 3 3 4 4 4 4
4 3 5 6 4 3 3 3 5 5 5 5 4 3 3 2 2 1 1 1 1 0 1 1 1 1 1 1 1 2 3 3 3 3 3 3 3 3 3 3 3 3 3 3
6 6 7 5 3 4 4 4 5 5 5 4 3 4 3 3 3 2 2 1 1 1 1 1 1 1 2 2 2 2 3 3 3 3 3 3 2 2 3 3 2 1 2 2
Wind_Direction
210 231 233 272 297 322 304 306 307 13 175 254 255 261 221 193 202 203 196 191 195 198 188 178 174 168 165 159 160 166 157 144 185 189 283 270 95 57 56 57 46 25 10 10
221 229 251 246 235 252 257 259 256 195 208 270 273 266 236 206 213 215 210 206 205 200 194 186 178 178 179 172 175 181 181 171 200 129 319 294 347 16 50 11 36 14 12 358
242 268 173 226 245 251 256 266 278 278 250 238 265 238 210 195 208 212 217 218 216 210 205 194 185 186 183 182 184 188 182 164 170 221 222 79 154 287 55 30 27 14 10 13
238 230 222 242 251 263 261 285 267 253 262 263 270 288 189 188 197 207 216 215 214 212 209 200 188 187 188 187 180 183 184 183 174 206 233 257 322 357 12 359 20 13 9 0
218 212 231 247 263 261 289 263 245 252 265 273 250 278 178 163 211 219 214 212 215 213 204 197 195 188 190 185 181 181 179 176 175 195 223 253 298 340 356 5 16 355 18 359
238 221 241 256 237 214 191 210 224 238 252 263 281 280 294 112 280 243 201 201 201 201 197 197 192 186 187 184 183 184 174 175 176 177 182 216 286 318 341 351 348 340 13 15
215 209 202 216 213 195 227 253 256 247 244 274 341 274 354 44 28 258 206 180 178 186 191 190 187 189 190 191 188 185 175 179 177 177 187 201 223 233 265 296 322 321 341 8
218 208 194 210 238 243 241 265 281 296 304 306 239 270 59 50 65 94 137 146 158 176 184 184 188 188 190 192 187 186 184 189 188 188 195 205 216 230 232 254 298 310 323 349
230 207 175 205 235 248 244 254 283 281 278 281 277 229 179 125 113 106 119 129 146 161 166 172 176 180 183 186 185 187 188 190 196 198 195 196 208 236 259 261 263 290 307 311
241 232 207 191 204 219 265 270 260 270 286 285 277 256 253 188 187 152 134 129 140 153 153 149 158 169 173 177 177 182 185 190 195 198 202 191 201 215 228 250 289 301 305 314
238 234 216 208 226 233 215 231 250 270 281 287 293 305 55 165 213 203 180 141 151 164 159 150 148 154 163 171 176 181 184 190 193 195 195 203 205 209 213 222 236 250 275 288
226 242 239 227 224 264 248 250 248 262 272 272 286 302 94 125 164 167 155 120 125 155 159 154 149 149 161 173 181 185 191 194 194 191 194 199 206 209 212 214 229 241 255 264
211 238 237 224 209 204 229 241 253 265 269 269 276 289 106 108 129 120 101 125 139 145 144 145 145 145 155 171 181 193 196 197 197 191 195 195 199 205 218 226 232 238 246 262
236 243 251 258 267 246 237 238 245 254 261 272 276 286 277 257 259 26 118 155 155 151 154 155 151 141 148 167 180 199 203 199 196 193 194 197 205 217 230 237 242 241 245 261
232 241 246 258 268 263 256 251 243 251 268 278 286 289 288 268 273 283 179 156 149 150 154 158 155 140 149 162 173 177 184 183 189 194 198 202 207 217 231 239 248 253 254 259
237 239 242 248 248 248 252 251 249 251 259 263 268 278 320 299 205 183 161 154 139 134 142 161 158 147 156 161 154 145 162 166 168 180 192 208 214 219 228 241 247 254 259 269
228 231 245 251 248 249 246 245 244 245 255 262 269 281 186 225 211 208 188 168 135 73 88 144 160 151 149 151 149 157 157 150 152 158 208 269 249 249 261 267 263 259 258 262
236 237 242 250 244 246 254 237 239 245 257 268 286 291 259 240 216 187 154 163 186 295 262 206 162 139 133 111 111 116 127 135 143 149 219 273 279 283 271 266 270 271 268 266
226 229 241 243 242 245 240 228 234 245 247 269 268 272 260 229 203 182 99 48 324 16 14 90 157 136 115 107 103 101 99 100 100 72 330 304 303 302 297 291 283 279 273 269
200 219 237 242 250 252 243 181 237 251 244 242 234 221 197 207 245 75 64 34 360 22 51 86 103 115 114 105 109 116 109 91 49 4 332 312 301 293 292 296 292 286 276 273
200 214 231 241 248 251 258 211 216 240 278 65 142 186 210 242 317 34 52 49 40 66 94 103 112 108 95 92 116 151 166 247 328 326 319 305 297 281 281 287 291 295 291 292
226 226 227 237 245 244 74 194 229 341 21 18 346 295 271 310 40 65 71 69 78 91 107 101 98 77 69 78 141 181 218 246 245 265 289 294 297 296 297 291 293 295 292 284
234 262 254 249 249 60 73 75 34 356 333 330 312 302 281 254 237 75 73 79 101 123 71 73 89 79 30 346 232 221 257 266 249 240 253 275 291 295 297 287 286 285 283 290
213 261 249 244 227 212 163 18 337 326 314 305 303 296 280 269 255 209 179 151 130 25 292 213 172 168 304 301 247 238 260 257 244 246 257 263 276 288 293 294 298 298 306 308
260 237 241 243 244 243 242 307 323 322 315 312 315 292 270 251 229 223 220 194 191 221 283 270 253 243 261 263 255 254 253 248 247 252 260 267 280 296 297 303 313 305 318 316
237 241 249 256 252 273 281 303 313 313 310 307 296 289 261 224 218 228 224 206 205 216 241 258 261 261 269 270 269 264 258 252 256 258 262 269 281 290 290 296 296 319 259 226
Height
1514 1511 1510 1509 1508 1509 1510 1512 1513 1511 1509 1510 1511 1511 1511 1515 1517 1519 1520 1523 1524 1526 1528 1529 1530 1530 1531 1531 1530 1531 1530 1530 1530 1530 1531 1531 1531 1530 1530 1530 1529 1528 1527 1527
1511 1510 1507 1508 1509 1510 1510 1513 1513 1511 1509 1510 1510 1509 1508 1511 1514 1516 1518 1520 1522 1524 1526 1528 1529 1529 1530 1530 1530 1530 1530 1530 1530 1530 1530 1530 1531 1531 1530 1530 1529 1528 1527 1526
1510 1507 1508 1509 1509 1510 1509 1510 1511 1512 1509 1507 1509 1509 1506 1508 1511 1514 1516 1518 1520 1522 1523 1525 1527 1527 1528 1529 1529 1530 1530 1530 1530 1530 1530 1530 1530 1530 1530 1530 1529 1528 1527 1526
1507 1506 1508 1508 1508 1508 1511 1506 1508 1510 1512 1509 1509 1514 1505 1503 1507 1510 1513 1515 1517 1519 1521 1523 1524 1525 1526 1528 1528 1528 1529 1529 1529 1530 1530 1530 1530 1531 1530 1530 1529 1528 1527 1526
1506 1505 1507 1508 1506 1506 1507 1506 1507 1508 1508 1508 1505 1510 1503 1501 1505 1506 1509 1511 1514 1516 1518 1520 1522 1523 1525 1526 1527 1527 1527 1528 1528 1529 1529 1530 1530 1530 1530 1529 1528 1528 1527 1526
1502 1503 1504 1504 1504 1506 1506 1507 1506 1505 1504 1516 1507 1510 1507 1500 1503 1504 1506 1509 1512 1514 1516 1518 1520 1521 1523 1524 1525 1526 1526 1526 1527 1527 1528 1529 1529 1529 1529 1529 1528 1528 1527 1526
1504 1501 1502 1504 1505 1505 1505 1508 1516 1518 1516 1513 1503 1507 1506 1499 1500 1502 1505 1508 1510 1512 1514 1516 1518 1519 1521 1523 1524 1525 1525 1525 1526 1526 1527 1527 1528 1528 1528 1528 1528 1527 1527 1526
1506 1507 1500 1501 1502 1503 1502 1504 1518 1527 1522 1509 1504 1506 1501 1498 1501 1503 1505 1507 1509 1511 1512 1514 1516 1518 1519 1521 1522 1523 1524 1524 1525 1525 1525 1526 1526 1527 1527 1526 1527 1526 1526 1525
1500 1504 1498 1499 1500 1499 1501 1501 1497 1506 1508 1511 1504 1501 1498 1498 1500 1502 1504 1506 1508 1510 1511 1513 1514 1516 1517 1518 1520 1521 1522 1523 1524 1524 1524 1525 1525 1525 1526 1525 1525 1525 1524 1524
1494 1504 1498 1498 1500 1500 1498 1497 1501 1505 1520 1519 1508 1504 1501 1501 1501 1502 1504 1505 1507 1509 1510 1512 1513 1514 1516 1517 1518 1519 1520 1521 1522 1523 1523 1524 1524 1524 1524 1524 1524 1523 1523 1522
1492 1501 1500 1498 1499 1498 1501 1501 1502 1500 1502 1515 1517 1507 1493 1497 1499 1501 1503 1505 1507 1508 1509 1511 1512 1514 1515 1516 1517 1518 1519 1520 1521 1522 1522 1523 1523 1523 1523 1523 1522 1522 1521 1520
1494 1495 1499 1496 1493 1493 1494 1494 1497 1507 1508 1504 1507 1505 1493 1495 1497 1500 1502 1505 1507 1508 1509 1510 1512 1513 1514 1515 1516 1517 1518 1519 1520 1520 1521 1521 1522 1522 1522 1521 1521 1520 1519 1518
1495 1497 1507 1504 1499 1496 1495 1493 1492 1491 1495 1500 1506 1503 1493 1495 1497 1500 1503 1505 1506 1507 1509 1510 1511 1512 1513 1514 1515 1516 1516 1517 1518 1519 1519 1519 1520 1520 1520 1519 1519 1518 1517 1516
1497 1494 1500 1505 1497 1491 1495 1495 1493 1493 1497 1497 1496 1495 1492 1494 1497 1500 1502 1504 1506 1507 1508 1509 1510 1511 1512 1513 1513 1514 1515 1516 1517 1517 1517 1517 1517 1517 1517 1517 1517 1516 1515 1514
1495 1495 1494 1492 1490 1491 1492 1492 1492 1493 1492 1494 1492 1491 1492 1494 1497 1500 1502 1504 1506 1507 1508 1508 1509 1510 1511 1511 1512 1513 1514 1514 1514 1515 1515 1515 1515 1515 1515 1515 1514 1514 1513 1513
1495 1496 1495 1496 1491 1491 1492 1490 1490 1490 1489 1489 1489 1491 1491 1495 1498 1500 1502 1504 1505 1506 1507 1508 1508 1509 1509 1510 1510 1511 1512 1512 1512 1513 1513 1513 1513 1513 1512 1512 1512 1511 1511 1510
1494 1496 1499 1497 1491 1493 1496 1488 1487 1487 1486 1487 1489 1490 1493 1496 1498 1500 1502 1503 1505 1505 1506 1507 1507 1507 1508 1508 1509 1509 1510 1510 1510 1511 1511 1511 1511 1511 1510 1510 1510 1509 1508 1508
1497 1498 1496 1495 1499 1508 1489 1482 1483 1485 1487 1487 1489 1491 1494 1496 1498 1500 1501 1503 1504 1504 1505 1506 1506 1506 1507 1508 1509 1509 1509 1510 1509 1509 1509 1509 1508 1508 1508 1508 1507 1506 1506 1505
1495 1497 1495 1494 1497 1493 1486 1483 1484 1486 1489 1488 1490 1492 1494 1495 1496 1498 1500 1502 1503 1503 1504 1504 1505 1505 1506 1506 1507 1508 1508 1509 1509 1509 1509 1508 1507 1507 1506 1505 1505 1504 1504 1503
1494 1494 1494 1494 1498 1498 1486 1483 1485 1487 1491 1489 1491 1492 1494 1494 1493 1496 1499 1501 1501 1502 1502 1503 1503 1504 1504 1505 1506 1506 1507 1507 1507 1508 1507 1507 1506 1505 1504 1503 1502 1502 1501 1500
1492 1494 1493 1492 1493 1486 1482 1484 1486 1494 1492 1491 1492 1493 1494 1495 1495 1498 1499 1500 1500 1501 1501 1501 1502 1503 1503 1504 1504 1504 1505 1505 1505 1505 1505 1505 1504 1503 1502 1501 1499 1498 1498 1497
1487 1488 1491 1490 1494 1491 1485 1485 1488 1491 1492 1492 1493 1494 1495 1496 1497 1498 1498 1499 1499 1500 1500 1501 1501 1501 1502 1502 1502 1502 1503 1503 1503 1503 1503 1502 1501 1501 1500 1498 1497 1496 1495 1494
1485 1485 1482 1485 1487 1488 1488 1490 1492 1493 1493 1493 1494 1494 1495 1495 1496 1497 1497 1498 1498 1499 1499 1499 1499 1499 1500 1501 1501 1501 1501 1501 1500 1500 1500 1499 1499 1498 1497 1496 1494 1493 1493 1492
1486 1490 1487 1487 1485 1488 1490 1492 1492 1493 1493 1493 1494 1494 1494 1495 1495 1495 1496 1496 1497 1497 1498 1498 1497 1497 1498 1498 1499 1498 1498 1498 1498 1497 1497 1497 1496 1495 1494 1493 1492 1491 1491 1490
1487 1488 1486 1486 1487 1489 1489 1491 1491 1491 1491 1491 1492 1492 1493 1493 1494 1494 1494 1495 1495 1495 1496 1496 1496 1496 1496 1496 1496 1495 1495 1495 1494 1494 1494 1494 1494 1493 1492 1491 1489 1488 1487 1487
1486 1486 1485 1483 1487 1488 1488 1490 1490 1490 1490 1490 1490 1490 1491 1491 1492 1493 1493 1493 1493 1493 1494 1494 1494 1494 1494 1494 1493 1493 1493 1492 1492 1492 1492 1492 1492 1491 1490 1488 1487 1485 1485 1484